Estherville, IA

3:43 AM CDT on August 28, 2016 (GMT -0500)
Estherville Municipal

Weather History for KEST - September, 2011

Change the Weather History Date:

Saturday, September 17, 2011

  Actual Average Record
Temperature  
Mean Temperature 55 °F 60 °F  
Max Temperature 61 °F 73 °F 96 °F (1955)
Min Temperature 49 °F 48 °F 35 °F (1980)
Degree Days  
Heating Degree Days 10 6  
Month to date heating degree days 100 64  
Since 1 July heating degree days 102 96  
Cooling Degree Days 0 1  
Month to date cooling degree days 45 37  
Year to date cooling degree days 745 577  
Growing Degree Days 4 (Base 50)    
Moisture  
Dew Point 45 °F    
Average Humidity 69    
Maximum Humidity 86    
Minimum Humidity 51    
Precipitation  
Precipitation 0.05 in 0.13 in 2.16 in (1968)
Month to date precipitation 0.47 1.81  
Year to date precipitation 18.65  
Sea Level Pressure  
Sea Level Pressure 30.13 in    
Wind  
Wind Speed 13 mph (SSE)    
Max Wind Speed 22 mph    
Max Gust Speed 29 mph    
Visibility 10 miles    
Events      
T = Trace of Precipitation, MM = Missing Value Source: NWS Daily Summary

Daily Weather History Graph

Daily Weather History Graph

Search for Another Location

Airport or City:

Trip Planner

Search our weather history database for the weather conditions in past years. The results will help you decide how hot, cold, wet, or windy it might be!

Date:

Astronomy

Sep. 17, 2011 Rise Set
Actual Time 7:00 AM CDT 7:25 PM CDT
Civil Twilight 6:31 AM CDT 7:54 PM CDT
Nautical Twilight 5:57 AM CDT 8:28 PM CDT
Astronomical Twilight 5:23 AM CDT 9:02 PM CDT
Moon 9:45 PM CDT (9/17) 12:14 PM CDT (9/17)
Length of Visible Light 13h 22m
Length of Day
12h 25m
Waning Gibbous, 76% of the Moon is Illuminated
Sep 17
Waning Gibbous
Sep 20
Last Quarter
Sep 27
New
Oct 3
First Quarter
Oct 11
Full

Hourly Weather History & Observations

Time (CDT) Temp. Dew Point Humidity Pressure Visibility Wind Dir Wind Speed Gust Speed Precip Events Conditions
12:52 AM 48.9 °F 45.0 °F 86% 30.20 in 10.0 mi SSE 8.1 mph - N/A   Overcast
1:44 AM 48.2 °F 44.6 °F 87% 30.18 in 10.0 mi SE 10.4 mph - N/A   Overcast
2:52 AM 48.9 °F 45.0 °F 86% 30.19 in 10.0 mi SSE 8.1 mph - N/A   Overcast
3:52 AM 48.9 °F 45.0 °F 86% 30.19 in 10.0 mi SSE 8.1 mph - N/A   Overcast
5:33 AM 48.2 °F 44.6 °F 87% 30.16 in 10.0 mi SE 9.2 mph - N/A   Overcast
5:52 AM 48.9 °F 45.0 °F 86% 30.18 in 10.0 mi SE 9.2 mph - N/A   Overcast
6:52 AM 48.9 °F 44.1 °F 83% 30.18 in 10.0 mi SE 11.5 mph - N/A   Overcast
7:52 AM 48.9 °F 44.1 °F 83% 30.19 in 10.0 mi SE 11.5 mph - N/A   Overcast
8:52 AM 51.1 °F 43.0 °F 74% 30.18 in 10.0 mi SSE 11.5 mph - N/A   Overcast
9:52 AM 53.1 °F 43.0 °F 69% 30.17 in 10.0 mi SSE 12.7 mph - N/A   Overcast
11:52 AM 59.0 °F 43.0 °F 55% 30.15 in 10.0 mi SSE 19.6 mph 25.3 mph N/A   Overcast
12:52 PM 59.0 °F 43.0 °F 55% 30.14 in 10.0 mi SSE 17.3 mph 28.8 mph N/A   Overcast
1:52 PM 57.9 °F 42.1 °F 56% 30.14 in 10.0 mi SSE 18.4 mph 24.2 mph N/A   Overcast
3:52 PM 57.9 °F 44.1 °F 60% 30.11 in 10.0 mi South 19.6 mph 26.5 mph N/A   Overcast
4:52 PM 57.9 °F 44.1 °F 60% 30.10 in 10.0 mi SSE 17.3 mph 21.9 mph N/A   Overcast
5:52 PM 57.0 °F 46.0 °F 67% 30.09 in 10.0 mi SSE 15.0 mph - 0.00 in   Overcast
6:52 PM 57.0 °F 45.0 °F 64% 30.09 in 10.0 mi SE 10.4 mph 23.0 mph N/A   Overcast
7:24 PM 57.2 °F 44.6 °F 63% 30.07 in 10.0 mi SE 11.5 mph - N/A   Overcast
7:52 PM 57.0 °F 45.0 °F 64% 30.08 in 10.0 mi SE 11.5 mph - N/A   Overcast
8:52 PM 55.9 °F 44.1 °F 64% 30.08 in 10.0 mi SE 9.2 mph - N/A   Overcast
9:52 PM 55.9 °F 46.0 °F 69% 30.07 in 10.0 mi SSE 11.5 mph - N/A   Overcast
10:52 PM 55.9 °F 46.9 °F 72% 30.07 in 10.0 mi SSE 9.2 mph - N/A   Overcast
11:52 PM 55.9 °F 46.9 °F 72% 30.06 in 10.0 mi SSE 10.4 mph - N/A   Overcast